This is the latest recevied weather packets stored in our database for station/object WX7FGZ-5. If no packets are shown the sender has not sent any weather packets the latest 10 day(s).
| Time | Temp. | Humidity | Pressure | Rain* | Wind** | Luminosity | Snow |
|---|---|---|---|---|---|---|---|
| 1777931943 | 13.33° C | 35% | 1019 hPa | 0 mm | - | 517 W/m² | - |
| 1777931643 | 13.89° C | 35% | 1019.1 hPa | 0 mm | - | 606 W/m² | - |
| 1777931344 | 13.89° C | 36% | 1018.6 hPa | 0 mm | - | 823 W/m² | - |
| 1777931043 | 13.33° C | 35% | 1019 hPa | 0 mm | - | 912 W/m² | - |
| 1777930743 | 13.89° C | 35% | 1019 hPa | 0 mm | - | 584 W/m² | - |
| 1777930145 | 13.89° C | 35% | 1019 hPa | 0 mm | - | 626 W/m² | - |
| 1777929843 | 13.89° C | 35% | 1019 hPa | 0 mm | - | 626 W/m² | - |
| 1777929543 | 13.33° C | 37% | 1019.1 hPa | 0 mm | - | 654 W/m² | - |
| 1777929243 | 13.33° C | 40% | 1019.2 hPa | 0 mm | - | 656 W/m² | - |
| 1777928654 | 13.33° C | 39% | 1019.3 hPa | 0 mm | - | 584 W/m² | - |
| 1777928363 | 13.33° C | 41% | 1019.2 hPa | 0 mm | - | 624 W/m² | - |
| 1777928343 | 13.89° C | 37% | 1019.3 hPa | 0 mm | - | 591 W/m² | - |
| 1777928043 | 13.33° C | 41% | 1019.2 hPa | 0 mm | - | 624 W/m² | - |
| 1777927743 | 13.89° C | 41% | 1019.1 hPa | 0 mm | - | 724 W/m² | - |
| 1777927443 | 13.33° C | 42% | 1019.2 hPa | 0 mm | - | 652 W/m² | - |
| 1777927144 | 12.78° C | 42% | 1019.3 hPa | 0 mm | - | 686 W/m² | - |
| 1777926279 | 13.89° C | 39% | 1019.3 hPa | 0 mm | - | 643 W/m² | - |
| 1777925978 | 13.33° C | 40% | 1019.2 hPa | 0 mm | - | 598 W/m² | - |
| 1777925679 | 13.33° C | 42% | 1019.4 hPa | 0 mm | - | 707 W/m² | - |
| 1777925079 | 13.89° C | 40% | 1019.2 hPa | 0 mm | - | 656 W/m² | - |
| 1777924779 | 14.44° C | 38% | 1019.2 hPa | 0 mm | - | 791 W/m² | - |
| 1777924180 | 13.89° C | 35% | 1019.1 hPa | 0 mm | - | 886 W/m² | - |
| 1777923578 | 14.44° C | 36% | 1019.1 hPa | 0 mm | - | 722 W/m² | - |
| 1777923279 | 14.44° C | 37% | 1018.9 hPa | 0 mm | - | 580 W/m² | - |
| 1777922380 | 14.44° C | 39% | 1019.1 hPa | 0 mm | - | 853 W/m² | - |
* Rain latest hour (hover to see other rain measurements)
** Current wind speed in m/s (hover to see current wind gust speed)